Location: Syracuse
(43.0480°N, 76.1480°W)
Time: 03:55:33
(UTC-04:00)

Daily predictions for brighter satellites

Satellite Brightness Start Highest point End
(mag) Time Altitude Azimuth Time Altitude Azimuth Time Altitude Azimuth
CZ-4C R/B 4.4 00:03:42 11° E 00:03:42 11° E 00:04:09 10° E
Cosmos 676 Rocket 4.3 00:07:58 47° SW 00:09:19 64° WNW 00:14:38 10° NNE
Atlas Centaur 2 4.3 00:02:04 10° WSW 00:05:19 22° SW 00:05:19 22° SW
Cosmos 1943 Rocket 2.0 00:13:44 10° NNW 00:19:17 75° WSW 00:19:48 69° SSW
Nadezhda 4 Rocket 4.1 00:18:32 48° SW 00:20:17 69° W 00:26:39 10° N
Cosmos 1953 3.5 00:17:21 10° NNW 00:20:33 35° WNW 00:20:33 35° WNW
Lacrosse 4 Rocket 2.2 00:22:28 43° WNW 00:22:39 43° NW 00:26:35 10° NNE
Cosmos 1544 4.1 00:20:51 10° N 00:23:38 47° NNW 00:23:38 47° NNW
Cosmos 1842 Rocket 3.9 00:21:43 10° NNW 00:25:39 56° WNW 00:25:39 56° WNW
Cosmos 1023 Rocket 4.3 00:25:48 78° SSW 00:26:11 89° WNW 00:31:29 10° NNE
Cosmos 1733 4.1 00:23:44 10° N 00:26:42 45° NNE 00:26:42 45° NNE
Cosmos 1470 3.5 00:25:29 10° N 00:28:29 52° N 00:28:29 52° N
Cosmos 1140 Rocket 3.4 00:30:00 75° SW 00:30:25 82° WNW 00:35:43 10° NNE
SL-27 R/B 4.2 00:37:48 30° NNW 00:37:48 30° NNW 00:39:54 10° N
Cosmos 2369 Rocket 3.9 00:38:40 10° WNW 00:42:29 19° W 00:42:56 19° WSW
Cosmos 1656 Rocket 3.6 00:36:59 10° NNW 00:42:43 83° ENE 00:43:21 71° SE
Cosmos 2208 Rocket 4.0 00:38:44 10° NNW 00:43:49 64° WSW 00:43:49 64° WSW
Cosmos 1689 Rocket 4.4 00:46:02 26° NNW 00:46:02 26° NNW 00:47:36 10° NNW
CZ-2C R/B 3.5 00:43:44 10° NNE 00:48:55 38° E 00:49:08 38° ESE
Meteor 1-16 Rocket 4.1 00:45:33 10° N 00:51:07 82° E 00:51:41 72° SE
CZ-4B R/B 3.2 00:57:18 31° NW 00:57:18 31° NW 00:59:32 10° NNW
COSMOS 2406 3.4 00:55:41 53° WSW 00:56:47 65° WNW 01:02:31 10° NNE
NOSS 3-2 (A) 3.9 00:57:43 43° ESE 00:57:47 43° ESE 01:03:56 10° NE
Cosmos 1627 Rocket 4.4 00:56:53 61° SW 00:57:56 76° W 01:04:05 10° N
Cosmos 405 Rocket 4.3 00:59:16 29° ENE 00:59:16 29° ENE 01:01:42 10° NNE
ATLAS 3B R/B 3.9 00:52:57 10° WSW 01:00:13 44° NW 01:07:17 10° NNE
Cosmos 2195 Rocket 4.5 00:59:36 58° SW 01:00:43 72° W 01:06:58 10° N
Cosmos 2026 Rocket 3.8 00:59:46 64° SSW 01:00:44 81° W 01:06:50 10° N
Cosmos 1766 Rocket 3.9 01:02:19 59° NE 01:02:19 59° NE 01:06:14 10° NNE
Cosmos 2228 Rocket 3.6 01:02:19 10° N 01:06:20 50° ENE 01:06:20 50° ENE
Cosmos 614 Rocket 4.2 01:08:19 57° W 01:08:48 60° WNW 01:13:58 10° NNE
Cosmos 1340 4.3 01:15:04 30° NW 01:15:04 30° NW 01:17:48 10° N
Cosmos 1328 Rocket 4.2 01:13:02 10° N 01:17:02 49° ENE 01:17:02 49° ENE
SL-8 R/B 4.0 01:14:01 10° WNW 01:18:51 67° NNE 01:20:11 45° E
Cosmos 1707 4.2 01:20:15 31° NW 01:20:15 31° NW 01:23:13 10° N
Cosmos 1515 Rocket 4.2 01:20:22 10° N 01:24:37 47° ENE 01:24:37 47° ENE
USA 238 DEB 4.2 01:23:30 31° WSW 01:26:56 58° NW 01:33:55 10° NNE
USA 238 4.2 01:23:38 31° WSW 01:27:01 59° NW 01:34:00 10° NNE
Meteor 1-24 Rocket 3.9 01:27:04 57° SW 01:28:04 68° WNW 01:34:03 10° N
Helios 1A Rocket 4.0 01:25:39 10° N 01:29:04 36° WNW 01:29:04 36° WNW
USA 215 3.7 01:23:29 10° ENE 01:29:35 40° SE 01:29:53 40° SE
Cosmos 2221 3.7 01:25:45 10° NNW 01:28:56 32° WNW 01:28:56 32° WNW
Cosmos 2082 Rocket 3.4 01:29:53 28° ESE 01:30:16 29° ESE 01:35:03 10° NE
Cosmos 1607 4.3 01:33:14 40° WSW 01:35:17 59° NW 01:41:27 10° NNE
Cosmos 1076 Rocket 4.3 01:36:06 44° WNW 01:36:06 44° WNW 01:39:45 10° N
Cosmos 1697 Rocket 4.4 01:32:03 10° N 01:36:56 28° NE 01:41:45 10° ESE
Cosmos 1553 Rocket 4.1 01:34:12 10° NNW 01:40:22 60° W 01:41:27 52° SW
COSMOS 2487 4.5 01:43:02 24° NW 01:43:02 24° NW 01:45:31 10° N
Cosmos 2315 Rocket 4.3 01:41:43 10° N 01:48:00 60° E 01:50:07 40° SE
Cosmos 841 Rocket 3.9 01:43:01 10° NNW 01:48:12 57° ENE 01:49:35 43° ESE
Cosmos 1833 Rocket 3.8 01:47:33 30° ESE 01:48:18 31° ESE 01:53:12 10° NE
ISS -0.8 01:47:29 18° NW 01:48:28 21° NNW 01:51:03 10° NE
Meteor 1-21 Rocket 4.2 01:48:32 61° SSE 01:49:29 75° E 01:55:12 10° NNE
CZ-4C R/B 2.0 01:48:51 70° SSW 01:49:31 86° SE 01:55:33 10° NE
NOSS 3-3 (A) 4.3 01:44:53 10° NW 01:52:20 81° WSW 01:55:46 38° SSE
NOSS 3-3 (C) 4.3 01:45:00 10° NW 01:52:27 82° WSW 01:55:56 37° SSE
Timation 2 Rocket 4.1 01:57:26 52° SSW 01:59:19 85° ESE 02:06:12 10° NNE
Cosmos 2344 3.7 01:58:28 45° S 02:01:02 67° ESE 02:09:41 10° NE
NOSS 3-2 (C) 3.4 01:59:33 54° SW 02:01:08 88° NW 02:07:52 10° NE
Cosmos 1818 3.4 01:59:20 10° NW 02:04:51 86° WSW 02:05:51 61° SSE
Cosmos 1814 Rocket 4.4 02:02:48 10° NNW 02:07:45 47° W 02:07:45 47° W
Cosmos 1674 3.2 02:08:51 54° NE 02:08:51 54° NE 02:12:01 10° NNE
CENTAUR R/B 3.6 02:10:43 26° SE 02:12:16 29° ESE 02:17:52 10° NE
Cosmos 2266 Rocket 4.2 02:11:04 48° SW 02:12:42 64° W 02:19:05 10° N
H-2A R/B 3.9 02:14:43 21° SE 02:14:43 21° SE 02:21:30 10° E
Cosmos 1486 Rocket 4.3 02:16:00 47° W 02:16:53 53° WNW 02:21:59 10° NNE
Meteor 2-20 Rocket 4.5 02:17:53 50° SW 02:19:25 68° W 02:25:35 10° N
Lacrosse 5 3.6 02:15:16 10° NW 02:19:51 33° NNE 02:24:25 10° E
Cosmos 1726 4.0 02:21:00 10° NNE 02:24:05 24° ENE 02:25:11 21° ESE
PSLV R/B 3.6 02:20:00 10° NNE 02:24:40 75° ESE 02:25:11 66° SSE
Cosmos 2369 3.8 02:20:01 10° NNW 02:25:30 53° WSW 02:26:02 51° SW
IRAS Rocket 4.4 02:20:36 10° NNE 02:26:05 64° ESE 02:27:34 46° SSE
Cosmos 1656 3.7 02:20:50 10° NNW 02:26:35 83° ENE 02:28:57 37° SSE
CZ-2C R/B 3.9 02:24:11 10° N 02:29:04 31° WNW 02:30:39 27° W
CZ-2C R/B 3.7 02:29:35 39° WSW 02:29:58 39° W 02:35:12 10° NNW
Cosmos 1867 3.6 02:37:24 49° SW 02:38:53 74° NW 02:44:23 10° NNE
IRS-P3 4.3 02:34:11 10° NNE 02:39:30 67° ESE 02:41:12 43° SSE
Cosmos 1151 Rocket 3.5 02:35:38 10° NNW 02:39:29 44° W 02:39:29 44° W
Genesis I 3.4 02:35:54 10° NNW 02:39:53 71° NE 02:40:38 54° ESE
Cosmos 1908 4.2 02:37:34 10° NNW 02:40:29 35° WNW 02:40:29 35° WNW
Cosmos 1437 Rocket 3.0 02:37:42 10° NNW 02:41:17 57° WNW 02:41:17 57° WNW
Aureole 1 Rocket 3.3 02:42:22 10° NNW 02:46:40 85° ENE 02:49:08 33° SSE
NOSS 3-2 (A) 4.5 02:45:04 22° W 02:48:42 41° NW 02:55:05 10° NNE
ASTEX 1 3.9 02:45:34 10° N 02:50:19 45° WNW 02:51:17 40° WSW
Resurs 1-4 Rocket 4.3 02:47:58 10° NE 02:51:33 18° E 02:55:05 10° SE
JB-3 4.2 02:48:06 10° N 02:52:09 71° WNW 02:52:31 65° WSW
Cosmos 1763 Rocket 4.2 02:49:19 10° NW 02:54:06 34° W 02:54:20 34° WSW
Sich 1 3.2 02:53:35 45° SSE 02:54:44 65° E 02:59:07 10° NNE
USA 32 4.4 02:51:42 10° NNW 02:56:46 49° W 02:57:56 41° SW
Cosmos 2151 3.5 02:58:18 40° W 02:58:44 42° WNW 03:02:49 10° N
Cosmos 1980 Rocket 2.4 02:53:08 10° NNW 02:58:47 72° ENE 03:04:06 12° SSE
Cosmos 1441 Rocket 4.5 03:03:59 29° W 03:04:13 29° WNW 03:07:44 10° NNW
SL-08 R/B 4.4 03:02:44 36° SSW 03:05:24 79° W 03:11:33 10° N
Cosmos 1300 2.6 03:03:34 10° NNW 03:07:24 67° W 03:07:48 61° SW
BREEZE-M DEB (TANK) 2.9 03:08:59 37° SSE 03:09:22 38° SE 03:15:12 10° ENE
Cosmos 371 Rocket 4.1 03:04:42 10° N 03:09:27 51° ENE 03:14:09 10° SE
Cosmos 540 Rocket 3.4 03:04:56 10° NNW 03:10:06 75° WSW 03:12:41 30° S
Cosmos 724 4.5 03:09:50 33° WSW 03:12:25 62° NW 03:18:16 10° NNE
USA 215 3.5 03:06:19 10° NE 03:12:47 65° NW 03:17:13 21° WSW
Cosmos 2058 3.3 03:12:15 43° WSW 03:12:59 49° WNW 03:17:04 10° N
Cosmos 2242 Rocket 3.5 03:09:01 10° N 03:13:29 88° WSW 03:15:13 36° S
Cosmos 2082 Rocket 2.9 03:11:43 28° WSW 03:14:08 43° WNW 03:19:33 10° NNE
ERS-2 2.7 03:12:14 10° N 03:15:48 44° WNW 03:16:18 41° W
AQUA 3.8 03:15:57 10° N 03:20:43 73° WNW 03:22:38 36° SSW
Meteor 1-27 4.4 03:15:18 10° NNW 03:21:04 60° W 03:23:58 29° SSW
Cosmos 1697 Rocket 3.0 03:15:42 10° NW 03:21:06 47° WSW 03:23:25 31° SSW
NPP 3.8 03:17:43 10° N 03:23:02 62° WNW 03:25:31 31° SW
CZ-2D R/B 3.4 03:19:52 10° NNE 03:24:36 34° E 03:29:13 11° SSE
ISS -0.5 03:23:17 10° NW 03:25:44 19° N 03:28:12 10° ENE
SL-16 R/B 3.2 03:20:52 10° SE 03:26:58 57° ENE 03:33:06 10° N
Abrixas 2.5 03:29:47 59° W 03:30:16 80° NNW 03:33:23 10° ENE
Cosmos 2360 4.2 03:24:48 10° NNW 03:30:33 89° ENE 03:36:16 10° SSE
SL-14 R/B 3.6 03:30:30 39° WSW 03:31:24 48° WNW 03:35:09 10° N
Cosmos 1833 Rocket 3.5 03:29:15 24° WSW 03:32:04 40° WNW 03:37:23 10° NNE
Spot 4 Rocket 4.0 03:28:13 10° NNE 03:33:24 84° ESE 03:36:30 25° S
Cosmos 1455 2.8 03:31:30 10° N 03:35:17 56° E 03:38:21 14° SSE
CZ-4C R/B 4.1 03:34:27 10° W 03:38:55 23° NNW 03:43:48 10° NNE
Cosmos 968 Rocket 3.4 03:38:14 26° SSW 03:41:10 87° ESE 03:46:20 10° NNE
Cosmos 1538 Rocket 3.9 03:36:29 10° NNW 03:41:43 78° WSW 03:46:57 10° SSE
CZ-3 Stage 3 4.1 03:33:00 10° WSW 03:44:30 28° SSW 03:48:12 10° SE
Cosmos 1703 3.4 03:43:37 32° SW 03:45:15 59° W 03:49:11 10° N
Cosmos 1437 4.2 03:45:20 24° W 03:45:50 25° WNW 03:48:40 10° NNW
Cosmos 1633 Rocket 3.9 03:44:54 26° WSW 03:46:33 36° WNW 03:50:40 10° N
SL-08 R/B 4.3 03:46:26 25° SW 03:47:55 30° W 03:52:12 10° NW
Lacrosse 5 rocket 3.1 03:44:05 10° NW 03:48:13 39° NE 03:52:29 10° ESE
ATLAS 5 CENTAUR R/B 3.9 03:45:50 10° SSE 03:49:20 20° ESE 03:52:58 10° ENE
ADEOS 3.8 03:44:24 10° N 03:49:32 58° WNW 03:52:43 23° SW
SL-16 R/B 2.4 03:49:05 10° NNW 03:54:48 77° ENE 04:00:28 10° SSE
EO 1 Del DPAF 3.2 03:52:36 17° S 03:55:32 70° WSW 03:59:27 10° NNW
Cosmos 332 Rocket 4.3 03:51:43 10° NW 03:56:08 37° WSW 03:58:48 20° SSW
Cosmos 1680 Rocket 4.4 03:51:16 10° N 03:56:21 51° ENE 04:01:25 10° SE
Cosmos 1726 3.6 03:56:33 10° NW 03:59:19 20° W 03:59:50 20° W
Meteor 1-4 Rocket 2.7 03:57:30 10° NNW 04:01:11 57° W 04:03:48 18° S
Cosmos 1470 Rocket 3.9 03:59:11 23° SW 04:01:45 50° WNW 04:06:06 10° N
CENTAUR R/B 2.9 03:57:54 19° WSW 04:02:26 56° NW 04:09:19 10° NNE
Lacrosse 5 1.9 03:58:05 10° NW 04:03:04 58° SW 04:08:00 10° SSE
Cosmos 1777 Rocket 4.0 03:59:39 17° SSW 04:03:43 85° ESE 04:09:03 10° NNE
Meteor 2-10 4.2 03:59:04 10° NNW 04:04:05 51° W 04:08:38 13° SSW
USA 161 3.0 04:05:41 17° WNW 04:05:41 17° WNW 04:06:51 10° NW
IRS-1D 3.6 04:00:03 10° NNE 04:05:25 82° WNW 04:09:56 15° SSW
Cosmos 1933 Rocket 4.0 04:04:16 21° SW 04:06:49 45° WNW 04:11:03 10° N
Cosmos 1709 Rocket 4.1 04:02:08 16° SSW 04:07:23 68° W 04:13:40 10° N
Cosmos 1271 Rocket 3.0 04:04:49 10° NNW 04:08:29 45° W 04:11:02 17° SSW
UNK 3.6 04:04:40 10° S 04:09:14 75° WSW 04:13:50 10° NNW
Cosmos 2322 Rocket 2.1 04:04:30 10° NNW 04:10:09 76° WSW 04:15:44 10° SSE
CRYOSAT 2 4.4 04:05:59 10° N 04:10:54 81° E 04:15:45 10° S
ARIANE 5 R/B 2.6 04:06:35 10° N 04:11:41 64° WNW 04:15:47 15° SSW
CZ-2C R/B 4.4 04:07:46 10° SSE 04:12:07 57° ENE 04:16:34 10° N
BREEZE-M DEB (TANK) 3.1 04:10:20 10° WNW 04:14:00 39° NNE 04:16:09 10° E
SME Rocket 4.2 04:08:10 10° SSE 04:15:34 74° ENE 04:20:27 10° N
Cosmos 773 Rocket 3.9 04:10:45 10° NNW 04:15:52 68° WSW 04:20:57 10° S
Cosmos 1626 2.5 04:15:54 18° SSW 04:18:23 46° WNW 04:22:01 10° N
BREEZE-M TANK 2.4 04:14:24 10° W 04:18:26 57° N 04:20:50 10° ENE
CZ-2D R/B 4.0 04:14:16 10° NNE 04:18:27 58° E 04:22:30 10° S
Okean O Rocket 2.5 04:14:18 10° NNE 04:18:38 49° E 04:22:55 10° S
Cosmos 2292 Rocket 3.2 04:23:56 18° SW 04:25:52 42° WNW 04:28:59 10° N
Resurs 1-4 Rocket 2.3 04:26:32 10° N 04:31:47 61° WNW 04:37:00 10° SSW
ATLAS CENTAUR R/B 4.4 04:34:17 10° NNW 04:38:12 24° NE 04:41:54 10° E
Cosmos 2221 Rocket 3.6 04:34:43 10° NNW 04:39:11 63° W 04:43:37 10° S
Okean 1-7 3.1 04:36:41 10° N 04:41:08 87° E 04:45:30 10° S
Cosmos 1980 Rocket 3.7 04:38:44 10° WNW 04:42:06 16° W 04:45:28 10° SW
Cosmos 2360 Rocket 2.5 04:37:56 10° NNW 04:43:35 75° ENE 04:49:12 10° SSE
CZ-4B R/B 3.5 04:38:23 10° NNE 04:43:48 71° ESE 04:49:17 10° S
OAO 3 Rocket 4.2 04:40:13 11° SW 04:44:01 29° S 04:48:07 10° ESE
Cosmos 2322 3.9 04:43:11 10° NNW 04:48:57 81° ENE 04:54:41 10° SSE
Cosmos 2112 Rocket 4.0 04:44:19 10° NNW 04:49:27 65° WSW 04:54:34 10° S
Cosmos 2219 4.3 04:44:43 10° S 04:50:06 45° ESE 04:55:33 10° NE
CZ-4B R/B 3.1 04:51:25 10° NNE 04:55:20 72° ESE 04:59:25 10° S
MOZ.5/SAFIR/RUBIN 5/SL-8 3.8 04:51:09 10° SSE 04:55:50 88° W 05:00:33 10° NNW
PAYLOAD B 4.3 04:51:22 10° NNE 04:56:55 87° WNW 05:02:26 10° SSW
Cosmos 1346 4.2 04:54:32 10° SW 04:57:17 29° WNW 05:00:03 10° NNW
CZ-4B DEB 4.3 04:53:19 10° NNE 04:58:49 85° ESE 05:04:20 10° SSW
